Preview of NWS' New Version of Forecast
This preview is not operational and should not be used for support decisions.

Regional Weather Roundup (RWR)

Issued by National Weather Service (NWS)

                            
000
ASUS46 KPQR 201410
RWROR 

OREGON REGIONAL WEATHER ROUNDUP
NATIONAL WEATHER SERVICE PORTLAND OR
600 AM PST WED FEB 20 2019

NOTE: "FAIR" INDICATES FEW OR NO CLOUDS BELOW 12,000 FEET WITH
NO SIGNIFICANT WEATHER AND/OR OBSTRUCTIONS TO VISIBILITY.

ORZ001>013-201500-
NORTHWEST OREGON

  
CITY           SKY/WX    TMP DP  RH WIND       PRES   REMARKS
ASTORIA        LGT RAIN  39  38  96 CALM      29.86S                  
TILLAMOOK      LGT RAIN  37  36  93 SE5       29.91S                  
NEWPORT        MOCLDY    45  37  76 NW14      29.96S                  
PORTLAND       MOCLDY    39  37  92 W3        29.88F                  
VANCOUVER WA   MOCLDY    36  34  92 CALM      29.88S                  
SCAPPOOSE      CLOUDY    36  33  89 VRB6      29.87S                  
HILLSBORO      MOCLDY    37  34  89 SW6       29.89                   
AURORA         CLOUDY    37  36  96 SW3       29.91R                  
MCMINNVILLE    MOCLDY    35  33  92 SW7       29.89S                  
SALEM          MOCLDY    39  33  79 SW8       29.90S                  
CORVALLIS      LGT RAIN  38  35  89 SW3       29.94S                  
EUGENE         CLOUDY    39  36  89 S3        29.95R                  
$$

ORZ021-028-201500-
SOUTHWEST OREGON

  
CITY           SKY/WX    TMP DP  RH WIND       PRES   REMARKS
NORTH BEND     CLOUDY    44  39  82 NW14      30.01S                  
BROOKINGS      LGT RAIN  41  37  86 N8        30.01S                  
ROSEBURG       LGT RAIN  39  37  92 CALM      29.98R                  
SEXTON SUMMIT  CLOUDY    28  26  92 N3        29.84F FOG              
GRANTS PASS    CLOUDY    34  34 100 SE3       29.99                   
MEDFORD        CLOUDY    35  32  88 VRB6      29.94R                  
$$

ORZ014>016-041-201500-
COLUMBIA GORGE

  
CITY           SKY/WX    TMP DP  RH WIND       PRES   REMARKS
TROUTDALE      CLOUDY    39  35  86 SW7       29.88S                  
HOOD RIVER     PTCLDY    36  32  87 W3        29.80R                  
THE DALLES     MOCLDY    37  30  75 NW7       29.79S                  
$$

ORZ029>031-041-044-049-050-061>064-502-503-505>511-201500-
EASTERN OREGON

  
CITY           SKY/WX    TMP DP  RH WIND       PRES   REMARKS
MADRAS         NOT AVBL                                               
REDMOND        PTCLDY    30  22  72 W8        29.74S                  
BEND           PTCLDY    27  23  86 CALM      29.74S                  
PRINEVILLE     CLOUDY    30  25  80 W9        29.74S                  
KLAMATH FALLS  LGT SNOW  28  25  88 W5        29.78F FOG              
LAKEVIEW       FLURRIES  25  21  85 SW7       29.74S                  
HERMISTON      CLOUDY    29  23  78 NE8       29.79R                  
PENDLETON      CLOUDY    25  22  88 NE14      29.75R WCI  13          
JOHN DAY       CLOUDY    29  27  91 CALM      29.67                   
MEACHAM        SNOW      26  23  88 VRB5      29.63R VSB 1/2          
LA GRANDE      LGT SNOW  28  27  96 SE7       29.66F FOG              
BAKER CITY     FLURRIES  26  23  88 CALM      29.65S                  
BURNS          MOCLDY    23  21  92 SW6       29.67S                  
ROME             N/A     29  21  72 SW15      29.64F WCI  18          
ONTARIO        CLOUDY    31  28  89 N5        29.72S                  
$$